Date,TemperatureHighF,TemperatureAvgF,TemperatureLowF,DewpointHighF,DewpointAvgF,DewpointLowF,HumidityHigh,HumidityAvg,HumidityLow,PressureMaxIn,PressureMinIn,WindSpeedMaxMPH,WindSpeedAvgMPH,GustSpeedMaxMPH,PrecipitationSumIn
2013-1-1,29.7,21.1,9.0,23.9,10.3,-1.7,49,43,37,29.88,29.61,25,4,26,0.00
2013-1-2,18.1,9.0,0.3,4.1,-2.4,-9.2,45,42,38,30.06,29.85,20,3,23,0.00
2013-1-3,19.6,9.1,-0.6,3.4,-2.5,-9.4,44,41,38,30.12,29.96,8,1,10,0.00
2013-1-4,31.3,16.2,0.0,24.1,11.0,-3.5,46,42,37,29.96,29.73,7,0,8,0.00
2013-1-5,32.4,25.2,9.3,24.1,14.9,5.2,45,43,40,30.29,29.73,22,2,29,0.00
2013-1-6,28.8,18.7,7.5,21.4,14.6,4.3,45,43,38,30.26,29.93,4,0,5,0.02
2013-1-7,23.7,17.2,7.2,21.0,12.2,4.3,46,43,39,30.43,29.98,12,2,15,0.01
2013-1-8,35.4,22.9,3.6,23.5,17.4,0.9,46,42,37,30.38,30.21,10,1,13,0.01
2013-1-9,34.2,24.7,10.2,31.3,21.2,7.9,46,43,38,30.43,29.88,8,0,9,0.01
2013-1-10,41.5,36.2,23.2,30.4,25.9,18.5,47,45,41,30.54,29.89,28,5,32,0.00
2013-1-11,36.0,27.2,15.3,26.8,19.6,13.1,47,44,39,30.56,30.27,8,0,9,0.00
2013-1-12,38.7,35.3,32.0,37.4,33.6,26.8,49,45,41,30.28,30.12,6,0,7,0.04
2013-1-13,40.5,37.8,35.2,39.7,36.9,34.2,50,47,44,30.17,29.95,10,0,10,0.02
2013-1-14,53.2,41.8,32.2,49.6,36.6,24.3,52,49,45,30.22,29.83,15,2,23,0.03
2013-1-15,36.0,31.8,24.3,26.6,22.9,19.6,52,48,44,30.33,30.21,6,0,7,0.00
2013-1-16,28.2,27.5,26.4,26.2,24.0,19.2,49,46,42,30.29,29.79,9,1,10,0.00
2013-1-17,37.8,23.4,11.5,31.3,15.6,-2.6,49,46,42,30.18,29.76,17,2,21,0.21
2013-1-18,14.0,8.5,1.2,-0.6,-4.9,-8.9,46,42,38,30.42,30.13,13,2,17,0.00
2013-1-19,33.1,22.8,1.0,24.3,15.3,-4.0,43,40,36,30.38,29.89,8,0,11,0.01
2013-1-20,43.3,33.3,19.9,34.3,23.6,7.5,49,44,40,29.89,29.44,18,3,22,0.09
2013-1-21,22.6,17.0,9.1,7.3,1.0,-2.4,45,40,34,30.06,29.85,13,2,18,0.00
2013-1-22,14.2,9.4,5.0,2.5,-1.3,-13.2,40,36,33,30.05,29.81,18,2,18,0.00
2013-1-23,4.8,0.2,-4.2,-11.9,-15.5,-17.7,36,34,31,30.11,30.04,18,4,21,0.00
2013-1-24,9.9,1.5,-5.3,-8.3,-13.0,-17.7,33,31,28,30.13,29.94,17,4,23,0.00
2013-1-25,15.4,8.4,0.7,0.7,-3.5,-10.1,33,31,29,30.22,30.10,13,2,16,0.00
2013-1-26,19.6,12.1,5.9,0.7,-2.4,-6.3,32,31,28,30.13,30.00,16,3,18,0.00
2013-1-27,21.6,13.8,7.0,3.7,-0.8,-4.9,34,32,31,30.44,30.13,17,3,17,0.00
2013-1-28,26.1,17.0,4.8,18.9,4.5,-3.5,36,32,30,30.45,30.11,7,1,8,0.00
2013-1-29,33.6,23.9,8.4,27.9,19.1,5.9,37,35,31,30.24,30.10,7,0,8,0.04
2013-1-30,50.4,40.7,30.4,49.5,39.6,28.0,46,40,34,30.17,29.44,13,3,20,0.28
2013-1-31,56.5,45.5,28.9,55.0,38.0,9.9,47,44,40,29.44,28.81,31,6,39,0.30
2013-2-1,28.9,22.0,12.7,10.9,5.9,-0.2,43,41,38,30.05,29.42,24,4,27,0.00
2013-2-2,24.3,17.4,11.1,12.4,4.5,-1.8,38,36,33,30.21,30.05,11,2,15,0.00
2013-2-3,27.0,22.1,16.7,16.5,13.7,12.0,38,36,35,30.08,29.71,13,2,15,0.00
2013-2-4,25.9,20.1,13.5,13.3,6.4,-6.9,38,35,33,29.87,29.64,20,4,29,0.00
2013-2-5,20.8,13.0,1.9,1.0,-3.5,-7.2,37,34,32,30.05,29.86,11,1,13,0.00
2013-2-6,32.7,19.8,10.6,20.7,7.6,-7.1,35,33,31,30.31,29.94,18,2,21,0.00
2013-2-7,16.5,10.9,6.3,-3.3,-8.5,-13.7,33,30,28,30.62,30.30,12,2,17,0.00
2013-2-8,12.2,8.6,5.2,9.3,1.3,-11.2,32,29,27,30.62,29.98,22,4,24,0.00
2013-2-9,16.7,12.1,8.2,13.3,9.4,5.7,32,29,26,30.14,29.77,29,9,39,0.00
2013-2-10,34.3,20.3,7.5,12.7,6.9,0.7,36,31,28,30.38,30.14,18,2,19,0.01
2013-2-11,33.1,18.9,2.7,31.8,16.2,-0.4,37,32,29,30.37,29.59,5,0,7,0.00
2013-2-12,40.8,34.0,27.1,34.2,29.4,25.7,41,38,33,29.77,29.54,14,1,18,0.30
2013-2-13,42.1,35.6,30.6,29.1,25.0,21.6,41,39,36,29.81,29.74,12,2,16,0.01
2013-2-14,38.5,30.7,20.8,23.7,20.8,17.8,41,38,36,30.02,29.73,13,2,15,0.00
2013-2-15,43.0,30.6,19.8,34.0,26.0,17.2,40,37,34,30.02,29.91,12,1,16,0.00
2013-2-16,33.3,30.3,25.3,30.7,27.4,13.5,41,38,35,29.96,29.80,22,2,22,0.03
2013-2-17,25.3,20.3,17.1,18.7,12.2,5.5,37,35,32,29.80,29.19,27,7,33,0.01
2013-2-18,28.4,19.4,11.8,9.1,3.6,-1.1,33,31,31,30.03,29.43,27,7,34,0.00
2013-2-19,40.6,29.7,16.3,39.6,13.9,-1.1,32,31,30,30.12,29.61,10,2,14,0.46
2013-2-20,41.9,33.9,26.2,40.8,26.2,15.8,40,36,32,29.63,29.41,17,4,19,0.20
2013-2-21,31.1,25.3,18.9,24.3,16.3,8.4,39,36,33,30.16,29.63,24,5,25,0.00
2013-2-22,37.2,30.0,23.4,23.5,20.9,19.0,43,39,33,30.41,30.17,14,2,17,0.00
2013-2-23,34.2,28.5,22.3,30.7,25.6,18.9,40,38,35,30.38,30.06,11,1,14,0.00
2013-2-24,29.7,28.3,26.4,28.2,26.7,23.5,42,40,37,30.06,29.82,9,2,11,0.00
2013-2-25,38.7,29.6,20.8,29.3,25.4,18.7,42,40,37,30.27,29.92,8,1,12,0.42
2013-2-26,43.3,33.3,24.6,31.6,26.8,22.6,45,42,37,30.38,30.27,10,0,11,0.02
2013-2-27,37.8,30.5,23.5,31.5,26.9,21.6,47,42,38,30.30,29.74,19,2,20,0.00
2013-2-28,39.7,35.0,30.0,38.7,33.8,28.2,46,43,40,29.74,29.57,15,3,16,0.48
2013-3-1,33.8,31.3,29.8,31.5,29.3,28.0,45,42,39,29.68,29.56,13,3,17,0.02
2013-3-2,37.8,32.9,30.4,33.6,29.9,27.9,44,42,39,29.66,29.62,16,2,17,0.10
2013-3-3,40.8,35.4,32.0,34.2,31.2,27.5,47,44,40,29.63,29.52,11,1,13,0.20
2013-3-4,33.8,31.7,29.8,30.0,27.5,24.3,50,46,41,29.71,29.51,16,3,16,0.04
2013-3-5,42.6,36.2,31.8,35.1,32.6,29.8,50,46,41,30.16,29.71,18,4,18,0.06
2013-3-6,38.1,33.9,31.5,31.6,28.8,24.4,47,45,41,30.30,30.16,14,3,19,0.00
2013-3-7,35.4,32.3,30.2,25.2,24.3,23.5,48,44,40,30.26,30.13,24,6,25,0.00
2013-3-8,44.2,35.6,28.9,25.5,23.4,21.6,48,44,40,30.25,30.09,27,7,27,0.00
2013-3-9,44.8,34.9,25.5,27.1,23.8,21.2,49,45,41,30.41,30.23,16,3,21,0.00
2013-3-10,43.0,31.4,19.9,29.8,25.1,18.0,47,44,41,30.45,30.32,9,2,13,0.00
2013-3-11,43.9,37.8,32.5,37.8,33.6,28.8,46,43,40,30.32,30.16,13,3,15,0.00
2013-3-12,48.7,44.4,39.6,47.7,42.7,37.8,48,45,41,30.17,29.75,18,4,25,0.78
2013-3-13,48.7,44.0,39.4,47.7,40.7,33.4,50,48,45,29.75,29.67,19,3,19,0.05
2013-3-22,34.9,30.8,27.9,19.0,17.4,15.4,42,41,39,29.66,29.61,13,2,18,0.00
2013-3-23,38.8,31.8,24.4,25.7,20.7,15.6,42,41,38,29.65,29.48,20,4,28,0.00
2013-3-24,43.3,36.3,27.0,27.3,24.9,22.3,43,40,38,29.80,29.63,19,3,20,0.00
2013-3-25,42.8,34.1,22.3,32.0,26.0,20.1,42,40,37,29.80,29.62,15,2,16,0.00
2013-3-26,47.3,38.8,30.7,28.9,26.2,23.4,46,42,38,29.74,29.59,15,4,21,0.00
2013-3-27,42.4,36.2,28.8,38.7,31.1,23.7,46,44,41,29.89,29.72,13,2,16,0.06
2013-3-28,50.4,40.2,32.2,37.4,32.6,29.3,46,44,41,29.98,29.89,11,2,13,0.00
2013-3-29,54.5,42.8,32.4,37.9,32.5,29.5,46,44,41,30.02,29.94,15,2,16,0.00
2013-3-30,52.7,39.8,25.3,34.5,23.7,15.6,47,44,42,30.10,29.98,13,2,18,0.00
2013-3-31,53.4,38.5,21.0,37.0,24.4,17.8,50,43,39,30.14,29.87,13,2,19,0.00
2013-4-1,49.8,40.7,32.4,42.8,36.3,19.8,45,44,41,29.87,29.49,18,3,23,0.58
2013-4-2,34.5,30.2,25.2,21.2,15.1,10.6,45,43,40,29.82,29.69,16,3,19,0.00
2013-4-3,40.1,32.3,27.1,19.2,16.0,11.1,43,41,38,30.04,29.80,24,5,30,0.00
2013-4-4,50.4,37.7,28.8,30.9,17.4,9.1,43,41,38,30.22,29.96,18,3,20,0.00
2013-4-5,55.8,41.7,33.8,32.5,26.8,20.8,45,39,28,29.97,29.65,20,3,22,0.00
2013-4-6,37.9,31.5,25.0,20.7,9.4,4.5,41,39,36,30.37,29.83,20,5,26,0.00
2013-4-7,46.2,35.6,22.6,37.9,24.4,12.6,39,38,37,30.36,29.95,26,4,27,0.00
2013-4-8,57.0,46.7,36.1,38.3,35.4,30.9,42,41,37,30.16,29.91,15,2,21,0.00
2013-4-9,43.3,40.6,36.7,41.5,37.9,31.1,46,43,40,30.15,29.92,6,1,9,0.16
2013-4-10,54.9,45.2,38.7,46.0,39.7,36.9,47,44,41,30.00,29.90,9,1,13,0.14
2013-4-11,50.2,43.3,35.8,40.8,25.8,15.4,46,44,40,30.22,29.89,14,3,17,0.00
2013-4-12,37.6,33.2,31.8,30.7,22.9,15.1,46,43,39,30.29,29.94,10,1,12,0.18
2013-4-13,43.5,36.6,31.3,37.8,33.5,30.0,44,42,40,29.95,29.82,9,1,11,0.21
2013-4-14,49.5,41.1,34.7,41.4,37.0,30.6,44,42,41,30.19,29.91,12,1,14,0.02
2013-4-15,55.8,41.4,27.3,40.6,33.8,25.5,47,43,39,30.43,30.19,11,2,18,0.00
2013-4-16,54.1,46.4,39.2,46.0,39.8,36.3,45,43,41,30.45,29.94,26,5,27,0.02
2013-4-17,56.1,48.9,38.1,47.7,37.7,32.5,46,44,42,30.18,29.96,16,3,21,0.00
2013-4-25,60.4,53.6,38.7,47.7,33.6,27.5,49,46,45,30.32,29.93,14,3,18,0.03
2013-4-26,60.4,46.4,29.5,36.9,30.9,25.9,45,42,41,30.46,30.32,10,1,13,0.00
2013-4-27,61.7,46.3,29.1,40.6,34.8,27.3,42,41,39,30.45,30.31,11,1,14,0.00
2013-4-28,66.9,50.2,31.3,43.0,34.5,29.8,42,38,29,30.36,30.25,12,2,18,0.00
2013-4-29,64.6,50.0,32.9,47.1,38.8,30.9,43,41,38,30.30,30.22,13,2,15,0.00
2013-4-30,69.4,52.3,34.0,48.6,37.6,28.6,47,43,32,30.40,30.28,11,1,17,0.00
2013-5-1,73.6,53.3,32.5,43.0,35.1,30.2,48,42,32,30.47,30.39,15,1,17,0.00
2013-5-2,66.6,51.6,36.7,47.5,40.3,34.3,46,44,37,30.56,30.43,10,1,15,0.00
2013-5-3,67.6,51.0,34.0,49.1,41.2,32.0,47,42,38,30.59,30.38,11,1,11,0.00
2013-5-4,68.4,49.4,35.6,45.7,38.1,31.8,45,39,30,30.43,30.30,14,2,16,0.00
2013-5-5,65.5,48.2,30.7,43.2,37.2,29.3,42,39,35,30.37,30.25,12,2,16,0.00
2013-5-6,66.4,50.9,37.0,47.1,42.1,34.9,44,42,40,30.30,30.17,13,3,15,0.00
2013-5-7,73.4,56.4,43.5,55.6,48.7,42.3,49,45,42,30.20,30.10,15,3,17,0.00
2013-5-8,75.2,60.6,45.7,60.8,54.4,44.4,54,50,47,30.26,30.15,16,2,21,0.06
2013-5-9,61.9,56.0,53.1,59.0,54.4,51.8,57,54,52,30.15,29.92,8,1,9,0.74
2013-5-10,73.8,59.7,50.5,62.2,55.4,49.6,55,53,52,29.97,29.91,8,1,9,0.00
2013-5-11,62.2,56.0,51.1,59.5,54.3,49.5,60,54,51,29.96,29.70,13,3,19,0.39
2013-5-12,62.2,57.1,45.9,57.9,54.4,42.3,57,55,49,29.73,29.55,12,1,19,0.03
2013-5-13,57.4,47.7,34.3,42.1,34.3,30.6,53,51,50,30.02,29.73,15,1,17,0.00
2013-5-14,57.0,47.4,37.2,36.0,33.1,28.8,52,51,48,30.04,29.96,12,2,19,0.00
2013-5-15,63.0,47.4,29.8,47.7,35.8,27.0,51,50,47,30.03,29.68,17,2,20,0.22
2013-5-16,75.6,59.4,48.4,56.5,47.1,37.2,53,50,46,29.81,29.57,13,2,20,0.00
2013-5-17,62.4,53.4,41.5,46.6,41.1,37.8,51,48,44,30.22,29.81,31,3,31,0.00
2013-5-18,64.9,50.0,35.2,50.5,41.8,33.6,53,46,39,30.36,30.22,12,1,16,0.01
2013-5-19,66.2,51.9,40.5,53.2,46.2,38.7,50,49,46,30.40,30.25,12,1,13,0.03
2013-5-20,71.1,57.8,48.6,62.2,54.4,46.9,54,52,48,30.25,29.93,13,1,15,0.62
2013-5-21,57.0,52.0,48.4,55.0,50.5,46.8,59,55,53,30.13,29.99,8,1,9,0.69
2013-5-22,55.9,50.8,47.3,52.7,49.0,46.2,58,56,53,30.08,29.95,10,1,14,0.32
2013-5-23,64.8,55.9,47.7,61.2,54.1,46.4,59,56,53,29.98,29.82,13,2,15,0.05
2013-5-24,64.8,58.6,47.8,63.0,57.3,46.2,63,59,56,29.88,29.65,14,4,19,0.77
2013-5-25,48.0,46.3,44.1,46.9,45.1,43.0,61,57,55,29.87,29.71,22,5,26,0.50
2013-5-26,54.1,47.3,43.3,48.2,43.5,39.4,61,58,55,29.98,29.66,19,3,19,0.01
2013-5-27,65.8,52.4,38.3,44.4,38.8,34.3,60,58,51,30.18,29.96,17,2,22,0.00
2013-5-28,72.9,54.5,35.2,50.0,40.8,34.0,59,54,42,30.25,30.18,13,1,18,0.00
2013-5-29,55.8,51.3,43.5,54.5,49.8,41.2,57,54,49,30.24,30.01,9,1,11,0.00
2013-5-30,84.0,67.6,52.5,67.3,59.5,51.6,67,56,50,30.04,29.97,14,1,22,0.00
2013-5-31,90.9,74.8,55.6,70.7,64.4,54.1,66,58,53,30.06,29.87,10,1,13,0.00
2013-6-1,93.6,76.2,60.4,74.3,65.3,59.0,66,57,46,29.92,29.80,15,1,20,0.00
2013-6-2,85.5,73.5,65.5,73.2,66.6,62.1,65,58,53,29.81,29.66,19,2,28,0.08
2013-6-3,76.3,67.3,61.3,67.5,63.2,51.4,69,62,53,29.82,29.70,11,2,15,0.01
2013-6-4,64.6,58.2,47.7,51.8,46.0,41.5,53,45,37,30.06,29.78,19,3,20,0.00
2013-6-5,72.9,59.4,46.9,48.0,43.8,35.4,48,42,33,30.18,30.05,13,1,13,0.00
2013-6-16,75.6,67.5,57.9,59.7,56.0,51.8,55,49,42,29.90,29.72,11,2,16,0.02
2013-6-17,79.2,64.4,52.3,64.0,58.8,50.9,63,57,53,29.87,29.72,10,1,15,0.46
2013-6-18,68.2,60.9,52.7,58.5,54.1,50.9,60,55,51,30.00,29.86,5,0,9,0.00
2013-6-19,73.2,61.4,48.6,52.9,48.7,43.5,55,47,37,30.16,29.94,11,2,15,0.00
2013-6-20,76.5,61.8,44.1,54.9,49.6,42.4,49,47,43,30.27,30.16,15,1,16,0.00
2013-6-21,81.1,65.5,50.7,59.7,54.8,49.1,57,49,43,30.24,30.17,9,0,10,0.00
2013-6-22,78.8,67.6,56.5,68.0,61.9,54.5,65,59,50,30.22,30.11,8,0,9,0.00
2013-6-25,89.1,79.2,66.6,74.8,68.8,63.7,62,60,57,29.85,29.70,13,1,15,0.00
2013-6-27,59.0,57.1,56.1,57.9,56.0,55.0,61,59,58,29.90,29.86,6,1,8,0.01
2013-6-28,64.9,61.0,57.0,64.0,60.0,55.9,72,67,64,29.81,29.57,11,2,14,0.72
2013-6-29,71.2,66.5,63.0,69.4,65.2,61.5,82,75,70,29.71,29.57,13,2,18,0.02
2013-6-30,84.4,70.5,62.6,72.9,66.9,61.3,76,71,67,29.94,29.70,12,1,13,0.22
2013-7-1,75.2,69.9,63.9,71.6,67.8,62.8,75,71,67,30.12,29.93,5,0,5,0.05
2013-7-2,70.3,60.6,57.2,69.1,59.4,56.1,75,67,64,30.25,30.10,12,2,14,0.30
2013-7-4,89.1,81.0,70.7,76.8,74.0,70.2,79,72,69,30.17,30.05,9,1,10,0.07
2013-7-5,91.6,78.6,67.3,76.3,71.8,66.0,74,68,61,30.11,29.99,11,1,12,0.01
2013-7-6,87.6,78.2,70.0,73.2,70.0,64.2,67,61,52,30.03,29.92,11,1,17,0.00
2013-7-7,85.6,77.7,68.7,71.2,67.1,62.8,58,54,51,29.97,29.90,10,0,13,0.00
2013-7-8,73.0,68.6,59.5,69.3,65.3,57.7,64,60,57,30.09,29.90,9,1,11,0.18
2013-7-9,75.7,67.7,62.8,68.0,64.3,61.0,65,64,63,30.14,30.08,9,1,12,0.08
2013-7-10,66.0,62.3,61.3,63.5,60.7,59.9,67,65,63,30.11,30.01,7,1,7,0.00